Meteo Giornale » Osservazioni meteo Italia » Monte Terminillo

ore: 04:55 - Osservazioni Meteo Monte Terminillo
Lat. 42° 28' N Lon. 12° 59' E Alt. 1874 metri s.l.m.

sereno Europe/Rome

0 °C

Sereno

Temp. 24 Ore

0 °C

0 °C

Ovest/Sud-Ovest

5.5 Km/h

Dew point 0 °C

Umidità 100 %

Visibilità  0 Km

Il sole sorge alle ore 07:22

Il sole tramonta alle ore 18:23

Data e Ora Cielo e Fenomeni T °C DP °C Um. % Pres. hPa Vis. km Vento km/h
Oggi h: 04:55 sereno Sereno 0 0 100 0 0 O/SO 5.5
Oggi h: 03:55 sereno Sereno 0 0 93 0 0 E/NE 3.7
Oggi h: 02:55 sereno Sereno 0 0 93 0 0 O/SO 5.5
Oggi h: 01:55 sereno Sereno 0 0 100 0 0 O 11.1
Oggi h: 00:55 sereno Sereno 0 0 93 0 0 SE 3.7
Ieri h: 23:55 sereno Sereno 0 0 93 0 0 S/SO 13
Ieri h: 22:55 sereno Sereno 0 0 93 0 0 SE 9.3
Ieri h: 21:55 sereno Sereno 0 0 93 0 0 E/SE 9.3
Ieri h: 20:55 sereno Sereno 0 0 93 0 0 E/SE 11.1
Ieri h: 19:55 sereno Sereno 0 0 22 0 0 S/SE 5.5
Ieri h: 18:55 sereno Sereno 0 0 82 0 0 E/SE 5.5
Ieri h: 17:55 sereno Sereno 0 0 40 0 0 N/NO 9.3
Ieri h: 16:55 sereno Sereno 0 0 77 0 0 O/NO 11.1
Ieri h: 15:55 sereno Sereno 0 0 73 0 0 O/NO 14.8
Ieri h: 14:55 sereno Sereno 0 0 73 0 0 O/NO 9.3
Ieri h: 13:55 sereno Sereno 0 0 36 0 0 O 7.4
Ieri h: 12:55 sereno Sereno 0 0 78 0 0 S/SO 5.5
Ieri h: 11:55 sereno Sereno 0 0 68 0 0 SO 5.5
Ieri h: 10:55 sereno Sereno 0 0 68 0 0 SE 5.5
Ieri h: 09:55 sereno Sereno 0 0 76 0 0 SE 9.3
Ieri h: 08:55 sereno Sereno 0 0 93 0 0 E/SE 7.4
Ieri h: 07:55 sereno Sereno 0 0 81 0 0 SE 7.4
Ieri h: 06:55 sereno Sereno 0 0 93 0 0 E/SE 7.4
Ieri h: 05:55 sereno Sereno 0 0 81 0 0 N/NO 9.3